Updated21/03/2018 12:35 

free counters
Scottish Weather Network UK Weather Network Cumulus Top Weather Sites

Peebles Weather - Advisories

Raw Data, Raw Data Expanded

Ignore low humidity and Dew Point values. Something wrong with the sensor.
Daytime temperatures are in direct sunlight so may be higher than official air temperature values.

Snow level is current accumulated settled snow estimated/measured from level platform in sheltered garden (yes the picnic bench...).

2018/03/21 12:20 EGPH 211220Z 25017KT 9999 BKN022 08/03 Q1023
9.0°C 0.0 mm 0.0 mm 0.0 mm 7.9 mph 16.8 mph 1019.7 hPa 69% X-Ray Solar Flare Level
Planetary K-Index
Planetary K-Index History
Station Warn Rain Snow Flood Wind Ltng Heat Cold Glob Moon Temp Rain 1h Rain Wed Rain 24h Wind 10m Gust Pressure Hum Proton Levels

0.498 m Waxing Crescent Cold F2-SW F:69 A:8 Kp:0 SSN:0

This Weather Widget is provided by the Met Office

METEOalarm.eu Weather warnings: Lothian & Borders

 No special awareness required

Warning data courtesy of and Copyright © EUMETNET-METEOalarm (http://www.meteoalarm.eu/).
Used with permission.
Time delays between this website and the www.meteoalarm.eu website are possible, for the most up to date information about alert levels as published by the participating National Meteorological Services please use www.meteoalarm.eu